Franklin, NC

2:35 PM EDT on September 26, 2017 (GMT -0400)
Franklin

Weather History for K1A5 - December, 2010

Change the Weather History Date:

Thursday, December 30, 2010

  Actual Average (KTOC) Record (KTOC)
Temperature  
Mean Temperature 33 °F -  
Max Temperature 45 °F 50 °F 63 °F (2015)
Min Temperature 21 °F 33 °F 37 °F (2016)
Degree Days  
Heating Degree Days 32    
Moisture  
Dew Point 26 °F    
Average Humidity 80    
Maximum Humidity 92    
Minimum Humidity 46    
Precipitation  
Precipitation 0.00 in - - ()
Sea Level Pressure  
Sea Level Pressure 30.15 in    
Wind  
Wind Speed 0 mph (South)    
Max Wind Speed 6 mph    
Max Gust Speed -    
Visibility 9 miles    
Events Rain    
Averages and records for this station are not official NWS values.
T = Trace of Precipitation, MM = Missing Value Source: NWS Daily Summary

Daily Weather History Graph

Daily Weather History Graph

Search for Another Location

Airport or City:

Trip Planner

Search our weather history database for the weather conditions in past years. The results will help you decide how hot, cold, wet, or windy it might be!

Date:

Astronomy

Dec. 30, 2010 Rise Set
Actual Time 7:41 AM EST 5:30 PM EST
Civil Twilight 7:13 AM EST 5:59 PM EST
Nautical Twilight 6:41 AM EST 6:30 PM EST
Astronomical Twilight 6:11 AM EST 7:01 PM EST
Moon 3:02 AM EST (12/30) 1:34 PM EST (12/30)
Length of Visible Light 10h 45m
Length of Day
9h 49m
Waning Crescent, 23% of the Moon is Illuminated
Dec 30
Waning Crescent
Jan 4
New
Jan 12
First Quarter
Jan 19
Full
Jan 26
Last Quarter

Hourly Weather History & Observations

Time (EST) Temp. Windchill Dew Point Humidity Pressure Visibility Wind Dir Wind Speed Gust Speed Precip Events Conditions
12:00 AM 23.9 °F - 21.9 °F 92% 30.13 in 7.0 mi Calm Calm - N/A   Clear
12:20 AM 22.8 °F - 20.5 °F 91% 30.12 in 7.0 mi Calm Calm - N/A   Clear
12:40 AM 23.4 °F - 21.2 °F 91% 30.12 in 5.0 mi Calm Calm - N/A   Clear
1:00 AM 23.0 °F - 20.8 °F 91% 30.11 in 7.0 mi Calm Calm - N/A   Clear
1:20 AM 21.7 °F - 19.4 °F 91% 30.11 in 7.0 mi Calm Calm - N/A   Clear
1:40 AM 22.3 °F - 20.1 °F 91% 30.11 in 7.0 mi Calm Calm - N/A   Clear
2:00 AM 23.0 °F - 20.7 °F 91% 30.11 in 7.0 mi Calm Calm - N/A   Clear
2:20 AM 22.6 °F - 20.1 °F 90% 30.12 in 7.0 mi Calm Calm - N/A   Clear
2:40 AM 22.8 °F - 20.3 °F 90% 30.12 in 10.0 mi Calm Calm - N/A   Clear
3:00 AM 22.1 °F - 19.4 °F 89% 30.12 in 10.0 mi Calm Calm - N/A   Clear
3:20 AM 22.8 °F - 20.3 °F 90% 30.13 in 7.0 mi Calm Calm - N/A   Clear
3:40 AM 23.9 °F - 21.2 °F 89% 30.13 in 10.0 mi Calm Calm - N/A   Clear
4:00 AM 23.9 °F - 21.2 °F 89% 30.14 in 7.0 mi Calm Calm - N/A   Clear
4:20 AM 24.6 °F - 22.1 °F 90% 30.14 in 10.0 mi Calm Calm - N/A   Clear
4:40 AM 25.2 °F - 22.6 °F 90% 30.16 in 10.0 mi Calm Calm - N/A   Clear
5:00 AM 25.3 °F - 22.8 °F 90% 30.15 in 10.0 mi Calm Calm - N/A   Mostly Cloudy
5:20 AM 26.2 °F - 23.7 °F 90% 30.14 in 7.0 mi Calm Calm - N/A   Mostly Cloudy
5:40 AM 26.6 °F - 23.9 °F 90% 30.16 in 7.0 mi Calm Calm - N/A   Mostly Cloudy
6:00 AM 27.5 °F - 24.6 °F 89% 30.16 in 10.0 mi Calm Calm - N/A   Mostly Cloudy
6:20 AM 27.5 °F - 24.8 °F 90% 30.16 in 7.0 mi Calm Calm - N/A   Mostly Cloudy
7:00 AM 28.0 °F - 25.2 °F 89% 30.18 in 7.0 mi Calm Calm - N/A   Overcast
7:20 AM 28.2 °F - 25.3 °F 89% 30.19 in 7.0 mi Calm Calm - N/A   Overcast
7:40 AM 28.4 °F - 25.5 °F 89% 30.19 in 7.0 mi Calm Calm - N/A   Overcast
8:00 AM 28.4 °F - 25.7 °F 90% 30.19 in 7.0 mi Calm Calm - N/A   Overcast
8:20 AM 28.9 °F - 26.2 °F 90% 30.19 in 7.0 mi Calm Calm - N/A   Overcast
8:40 AM 29.3 °F - 26.4 °F 89% 30.19 in 7.0 mi Calm Calm - N/A   Overcast
9:00 AM 29.8 °F - 26.6 °F 88% 30.19 in 7.0 mi Calm Calm - N/A   Overcast
9:20 AM 30.2 °F - 26.6 °F 86% 30.20 in 7.0 mi Calm Calm - N/A   Overcast
9:40 AM 31.1 °F - 27.5 °F 87% 30.20 in 7.0 mi Calm Calm - N/A   Overcast
10:00 AM 31.5 °F 28.1 °F 27.3 °F 85% 30.20 in 7.0 mi North 3.5 mph - N/A   Overcast
10:20 AM 32.0 °F - 27.9 °F 85% 30.21 in 10.0 mi Calm Calm - N/A   Overcast
10:40 AM 33.1 °F - 28.4 °F 83% 30.21 in 7.0 mi Calm Calm - N/A   Overcast
11:00 AM 33.8 °F - 28.4 °F 81% 30.20 in 10.0 mi Calm Calm - N/A   Overcast
11:20 AM 34.2 °F - 28.4 °F 79% 30.20 in 10.0 mi Calm Calm - N/A   Overcast
11:40 AM 34.7 °F - 28.9 °F 79% 30.18 in 10.0 mi Calm Calm - N/A   Overcast
12:00 PM 36.1 °F - 29.3 °F 76% 30.17 in 10.0 mi Calm Calm - N/A   Overcast
12:20 PM 37.4 °F - 29.8 °F 74% 30.16 in 10.0 mi Calm Calm - N/A   Overcast
12:40 PM 37.4 °F - 29.8 °F 74% 30.16 in 10.0 mi Calm Calm - N/A   Overcast
1:00 PM 39.7 °F 37.6 °F 30.2 °F 69% 30.14 in 10.0 mi North 3.5 mph - N/A   Overcast
1:20 PM 42.1 °F 39.2 °F 28.6 °F 59% 30.14 in 10.0 mi North 4.6 mph - N/A   Overcast
1:40 PM 43.0 °F 39.5 °F 27.9 °F 55% 30.13 in 10.0 mi North 5.8 mph - N/A   Overcast
2:00 PM 42.4 °F 40.7 °F 27.9 °F 56% 30.13 in 10.0 mi North 3.5 mph - N/A   Overcast
2:20 PM 43.7 °F - 27.9 °F 54% 30.12 in 10.0 mi Calm Calm - N/A   Overcast
2:40 PM 43.3 °F 40.7 °F 26.6 °F 52% 30.11 in 10.0 mi North 4.6 mph - N/A   Overcast
3:00 PM 45.5 °F 44.2 °F 25.7 °F 46% 30.11 in 10.0 mi North 3.5 mph - N/A   Mostly Cloudy
3:20 PM 45.1 °F - 25.7 °F 47% 30.11 in 10.0 mi Calm Calm - N/A   Mostly Cloudy
3:40 PM 43.5 °F - 27.7 °F 54% 30.11 in 10.0 mi Calm Calm - N/A   Overcast
4:00 PM 43.2 °F - 28.6 °F 56% 30.12 in 10.0 mi Calm Calm - N/A   Overcast
4:20 PM 43.5 °F 41.9 °F 27.5 °F 53% 30.11 in 10.0 mi North 3.5 mph - N/A Rain Light Rain
4:40 PM 42.8 °F 40.1 °F 26.4 °F 52% 30.12 in 10.0 mi North 4.6 mph - N/A   Overcast
5:00 PM 41.4 °F 39.4 °F 27.5 °F 58% 30.11 in 10.0 mi North 3.5 mph - N/A   Overcast
5:20 PM 38.5 °F - 30.2 °F 72% 30.13 in 10.0 mi Calm Calm - N/A   Overcast
5:40 PM 36.7 °F - 30.2 °F 77% 30.13 in 10.0 mi Calm Calm - N/A   Overcast
6:00 PM 36.0 °F - 30.6 °F 81% 30.13 in 10.0 mi Calm Calm - N/A   Overcast
6:20 PM 35.2 °F - 30.2 °F 82% 30.14 in 10.0 mi Calm Calm - N/A   Overcast
6:40 PM 34.3 °F - 29.3 °F 82% 30.14 in 10.0 mi Calm Calm - N/A   Overcast
7:00 PM 34.2 °F - 29.8 °F 84% 30.14 in 10.0 mi Calm Calm - N/A   Overcast
7:20 PM 34.2 °F - 29.5 °F 83% 30.14 in 10.0 mi Calm Calm - N/A   Overcast
7:40 PM 34.2 °F - 30.2 °F 85% 30.14 in 10.0 mi Calm Calm - N/A   Overcast
8:00 PM 34.0 °F - 30.2 °F 86% 30.15 in 10.0 mi Calm Calm - N/A   Overcast
8:20 PM 34.2 °F - 30.0 °F 85% 30.16 in 10.0 mi Calm Calm - N/A   Overcast
8:40 PM 34.2 °F - 30.6 °F 87% 30.17 in 10.0 mi Calm Calm - N/A   Overcast
9:00 PM 34.3 °F - 30.2 °F 85% 30.17 in 10.0 mi Calm Calm - N/A   Overcast
9:20 PM 34.3 °F - 30.2 °F 85% 30.18 in 10.0 mi Calm Calm - N/A   Overcast
9:40 PM 34.2 °F - 30.2 °F 85% 30.18 in 10.0 mi Calm Calm - N/A   Overcast
10:00 PM 34.5 °F - 30.7 °F 86% 30.18 in 10.0 mi Calm Calm - N/A   Overcast
10:20 PM 34.2 °F - 30.7 °F 87% 30.18 in 10.0 mi Calm Calm - N/A   Overcast
10:40 PM 34.2 °F - 30.6 °F 87% 30.19 in 10.0 mi Calm Calm - N/A   Overcast
11:00 PM 34.0 °F - 30.9 °F 89% 30.20 in 10.0 mi Calm Calm - N/A   Overcast
11:20 PM 34.2 °F - 30.7 °F 87% 30.20 in 10.0 mi Calm Calm - N/A   Overcast
11:40 PM 34.7 °F 29.6 °F 30.7 °F 85% 30.19 in 10.0 mi North 5.8 mph - N/A   Overcast